Location: Complexul Astronomic Baia Mare
(47.6577°N, 23.5639°E)
Time: 20:01:32
(UTC+03:00)

ISS - Pass Details

Date: 24 March 2017
Orbit: 399 x 409 km, 51.6° (Epoch: 27 March)

Event Time Altitude Azimuth Distance (km) Brightness Sun altitude
Exits shadow 04:40:45 11° 173° (S) 1,391 -1.3 -17.2°
Drops below altitude 10° 04:40:59 10° 170° (S) 1,467 -1.1 -17.2°
Sets 04:43:23 0° 153° (SSE) 2,324 0.1 -16.8°
